DW8069 Weather Reports


Display with metric or nautical units.
time (UTC)temp
F
wind
direction
speed
MPH
gust
MPH
rain 1hr
in
rain 24hr
in
rain mn
in
humidity
%
barometer
mb
20190527041729 68 79 0.0 4.0 0.00 0.00 0.00 71 1017.9
20190527040218 68 141 0.0 7.0 0.00 0.00 0.00 71 1017.7
20190527034653 68 250 0.0 2.0 0.00 0.00 0.00 71 1017.6
20190527033202 68 83 0.0 8.0 0.00 0.00 0.00 70 1017.6
20190527031708 68 134 0.0 5.0 0.00 0.00 0.00 70 1017.9
20190527030159 68 139 0.0 3.0 0.00 0.00 0.00 70 1017.9
20190527024710 68 214 1.0 2.0 0.00 0.00 0.00 69 1017.7
20190527023149 68 208 0.0 2.0 0.00 0.00 0.00 69 1017.9
20190527021621 68 205 0.0 2.0 0.00 0.00 0.00 70 1017.9
20190527020204 68 208 0.0 3.0 0.00 0.00 0.00 69 1017.9
20190527014628 68 205 0.0 2.0 0.00 0.00 0.00 69 1018.0
20190527013150 68 211 0.0 2.0 0.00 0.00 0.00 68 1017.9
20190527011650 69 203 0.0 2.0 0.00 0.00 0.00 68 1017.9
20190527010112 69 211 0.0 2.0 0.00 0.00 0.00 66 1017.9
20190527004607 69 177 0.0 1.0 0.00 0.00 0.00 65 1017.9
20190527003113 70 134 0.0 2.0 0.00 0.00 0.00 63 1018.1
20190527001631 71 212 0.0 4.0 0.00 0.00 0.00 61 1018.2
20190527000143 71 116 0.0 2.0 0.00 0.00 0.00 59 1018.1
20190526234647 72 108 0.0 4.0 0.00 0.00 0.00 58 1018.2
20190526233138 72 212 0.0 3.0 0.00 0.00 0.00 57 1018.2
20190526231626 72 118 0.0 6.0 0.00 0.00 0.00 56 1018.2
20190526230103 73 141 0.0 3.0 0.00 0.00 0.00 55 1018.2
20190526224618 73 103 0.0 6.0 0.00 0.00 0.00 55 1018.2
20190526223139 74 220 0.0 5.0 0.00 0.00 0.00 53 1018.2
20190526221626 74 136 0.0 4.0 0.00 0.00 0.00 52 1018.3
20190526220104 74 113 0.0 2.0 0.00 0.00 0.00 52 1018.2
20190526214618 75 60 1.0 6.0 0.00 0.00 0.00 51 1018.3
20190526213110 76 76 0.0 5.0 0.00 0.00 0.00 50 1018.5
20190526211615 76 205 0.0 5.0 0.00 0.00 0.00 52 1018.5
20190526210138 76 249 0.0 4.0 0.00 0.00 0.00 52 1018.7
20190526204640 78 149 0.0 3.0 0.00 0.00 0.00 51 1018.6
20190526203118 78 115 0.0 6.0 0.00 0.00 0.00 55 1018.5
20190526201618 80 75 0.0 4.0 0.00 0.00 0.00 52 1018.7
20190526200051 80 144 0.0 4.0 0.00 0.00 0.00 54 1018.9
20190526194649 81 133 0.0 3.0 0.00 0.00 0.00 48 1018.9
20190526193105 81 65 1.0 5.0 0.00 0.00 0.00 48 1019.0
20190526191556 82 83 1.0 5.0 0.00 0.00 0.00 51 1019.3
20190526190023 81 189 0.0 5.0 0.00 0.00 0.00 50 1019.5
20190526184522 81 219 0.0 5.0 0.00 0.00 0.00 53 1019.6
20190526183038 80 144 0.0 3.0 0.00 0.00 0.00 51 1019.8
20190526181543 82 124 0.0 4.0 0.00 0.00 0.00 51 1019.9
20190526180055 80 116 0.0 5.0 0.00 0.00 0.00 52 1020.2
20190526174512 78 77 1.0 9.0 0.00 0.00 0.00 58 1020.5
20190526173018 78 42 1.0 5.0 0.00 0.00 0.00 59 1020.6
20190526171507 78 106 0.0 5.0 0.00 0.00 0.00 59 1020.7
20190526170007 77 155 0.0 3.0 0.00 0.00 0.00 59 1021.0
20190526164518 76 124 1.0 7.0 0.00 0.00 0.00 58 1020.8
20190526163006 77 82 1.0 5.0 0.00 0.00 0.00 56 1020.8
20190526161652 77 106 1.0 5.0 0.00 0.00 0.00 60 1021.0
20190526160219 76 236 0.0 3.0 0.00 0.00 0.00 62 1021.0
20190526154756 75 148 0.0 5.0 0.00 0.00 0.00 66 1021.1
20190526153152 74 100 1.0 6.0 0.00 0.00 0.00 65 1021.2
20190526151716 75 103 2.0 5.0 0.00 0.00 0.00 65 1021.1
20190526150211 75 72 1.0 4.0 0.00 0.00 0.00 64 1021.2
20190526144653 74 39 0.0 7.0 0.00 0.00 0.00 65 1021.3
20190526143212 74 79 0.0 3.0 0.00 0.00 0.00 66 1021.4
20190526141620 74 87 0.0 4.0 0.00 0.00 0.00 70 1021.6
20190526140058 73 72 1.0 6.0 0.00 0.00 0.00 68 1021.5
20190526134618 73 225 0.0 2.0 0.00 0.00 0.00 71 1021.6
20190526133051 72 115 0.0 5.0 0.00 0.00 0.00 74 1021.6
20190526131625 70 83 0.0 3.0 0.00 0.00 0.00 77 1021.5
20190526130054 68 93 0.0 1.0 0.00 0.00 0.00 84 1021.5
20190526124530 66 273 0.0 4.0 0.00 0.00 0.00 87 1021.5
20190526123103 65 103 0.0 1.0 0.00 0.00 0.00 90 1021.5
20190526121551 64 155 0.0 1.0 0.00 0.00 0.00 91 1021.4
20190526120041 64 173 0.0 0.0 0.00 0.00 0.00 93 1021.2
20190526114528 63 200 0.0 0.0 0.00 0.00 0.00 94 1021.0
20190526113023 62 193 0.0 0.0 0.00 0.00 0.00 94 1020.9
20190526111530 62 193 0.0 1.0 0.00 0.00 0.00 94 1020.9
20190526110040 62 192 0.0 0.0 0.00 0.00 0.00 95 1020.8
20190526104525 62 192 0.0 0.0 0.00 0.00 0.00 95 1020.7
20190526103017 61 192 0.0 0.0 0.00 0.00 0.00 94 1020.5
20190526101527 61 191 0.0 0.0 0.00 0.00 0.00 94 1020.6
20190526100032 61 191 0.0 0.0 0.00 0.00 0.00 94 1020.4
20190526094552 61 192 0.0 0.0 0.00 0.00 0.00 93 1020.4
20190526093022 62 191 0.0 0.0 0.00 0.00 0.00 93 1020.2
20190526091521 62 192 0.0 0.0 0.00 0.00 0.00 93 1020.3
20190526090031 62 200 0.0 0.0 0.00 0.00 0.00 92 1020.2
20190526084506 63 111 0.0 1.0 0.00 0.00 0.00 92 1020.2
20190526083008 63 110 0.0 1.0 0.00 0.00 0.00 92 1020.1
20190526081505 63 145 0.0 0.0 0.00 0.00 0.00 92 1019.8
20190526080004 63 145 0.0 0.0 0.00 0.00 0.00 92 1019.8
20190526074503 63 152 0.0 0.0 0.00 0.00 0.00 91 1019.8
20190526073316 63 152 0.0 0.0 0.00 0.00 0.00 90 1019.7
20190526071757 64 155 0.0 0.0 0.00 0.00 0.00 90 1020.0
20190526070150 64 102 0.0 0.0 0.00 0.00 0.00 89 1020.0
20190526064756 64 101 0.0 1.0 0.00 0.00 0.00 89 1019.9
20190526063150 64 103 0.0 0.0 0.00 0.00 0.00 89 1020.1
20190526061650 64 103 0.0 0.0 0.00 0.00 0.00 89 1020.0
20190526060141 64 103 0.0 0.0 0.00 0.00 0.00 88 1020.1
20190526054636 65 103 0.0 0.0 0.00 0.00 0.00 87 1020.1
20190526053133 65 115 0.0 0.0 0.00 0.00 0.00 87 1020.1
20190526051629 65 170 0.0 0.0 0.00 0.00 0.00 86 1020.1
20190526050118 66 172 0.0 0.0 0.00 0.00 0.00 85 1020.2
20190526044833 66 172 0.0 0.0 0.00 0.00 0.00 85 1020.1
20190526043145 66 111 0.0 2.0 0.00 0.00 0.00 85 1020.5